Location: Unspecified
(54.1780°N, 0.0000°E)
Time: 20:16:47
(UTC+00:00)

Vanguard 2 - Pass Details

Date: 20 June 2019
Orbit: 553 x 2938 km, 32.9° (Epoch: 15 July)

Event Time Altitude Azimuth Distance (km) Brightness Sun altitude
Rises 09:25:15 0° 214° (SSW) 3,640 11.0 47.7°
Reaches altitude 10° 09:28:48 10° 191° (S) 3,061 10.9 48.1°
Maximum altitude 09:32:59 15° 158° (SSE) 3,090 11.4 48.6°
Drops below altitude 10° 09:38:15 10° 127° (SE) 4,035 12.1 49.3°
Sets 09:44:15 0° 109° (ESE) 5,586 12.5 50.0°
